STARLINK-6208, 56895

Orbit data source: Space-Track

STARLINK-6208, 56895 is a payload satellite owned by SpaceX/Seattle (US) in LEO that was launched on Mon, 12 Jun 2023 UTC via an FALCON 9 launch vehicle from the Air Force Eastern Test Range (AFETR). Payload-class satellites include a variety of spacecraft equipped with specific instruments for various scientific and technological missions. These include communications satellites like Starlink; space stations such as the ISS; scientific satellites like the Hubble; Earth observation satellites from companies like Planet Labs, Umbra, and HawkEye 360; GPS; miniature CubeSats for education and research; and military/defense satellites.

Loading next visibility...
Identifier
56895, 2023-083V
Orbit
LEO
Country
Flag of USUS
Related business
Manufacturer
SpaceX/Seattle
Mission
Operational Commercial Communications
Bus & Motor
STARLINK, Unknown motor
Mass
305 kg wet, ~290 kg dry
Launch date (UTC)
2023-06-12 (3 years ago)
Launch vehicle
FALCON 9
Launch site
Air Force Eastern Test Range (AFETR)
Object type
Payload
Rocket body
Debris
Shape & HBR
Box + 1 Pan, 10.1 m
Radar Cross Section
11.087 m², Large (>1 m²)

Expand to show TLE details & history
Last TLE update: 2 days ago

TLE from 2 days ago
0 STARLINK-6208
1 56895U 23083V   26171.46036713 -.00000228  00000-0  12265-5 0  9990
2 56895  43.0001 228.5698 0001179 280.4924  79.5795 15.27577253167303
Epoch: 2026-06-20T11:02Z
TLE epoch observation values (Epoch: 2026-06-20T11:02:55.720Z)
Latitude
0.00002°
Longitude
154.16298°
Altitude
482.687 km
Speed
7.626 km/s
True Right ascension
15h 14m 16s
True Declination
0° 00' 00"
Sunlit
Object was in full shadow at epoch
Visualization orbit readout
Latitude
Unknown
Longitude
Unknown
Altitude
Unknown
Speed
Unknown
Apparent Right ascension
Unknown
Apparent Declination
Unknown
Sunlit
N/A
Visualization observer readout
Local Sidereal Time
21:29:01
Azimuth
Unknown
Elevation
Unknown
Doppler factor
Unknown
Orbital elements
Apogee altitude
485.812 km
Perigee altitude
484.193 km
Semi-major axis
6,863.139 km
Eccentricity
0.00012
Inclination
43.0001°
RAAN
228.5698°
Arg. of periapsis
280.4924°
True anomaly
79.59279°
Mean anomaly
79.5795°
Eccentric anomaly
79.58614°
Mean motion
3.81732 °/min
Orbital period
94.31 mins
BSTAR
0.0000012265
Loading maneuver chart data...
Computing Atmospheric mass density...
Loading historical data...
Loading historical data...
Loading historical data...
Loading historical data...
Loading historical data...
Loading historical data...
Loading historical data...

Documentation

Showing up to 5 results
|